Flag for Australia Weather past 2 weeks in The Settlement, Christmas Island, Australia

Now
73 °F

Sunny.


Feels Like: 70 °F
Forecast: 76 / 82 °F
Wind: 5 mph from West

Location: Christmas Island Aerodrome

Current Time: Feb 1, 2015 at 7:52:58 AM

Latest Report: Feb 1, 2015 at 7:00 AM


Visibility: N/A

Pressure: 29.89 "Hg

Humidity: 94%

Dew point: 72 °F

Location of The SettlementLocation

Historic Weather in The Settlement — Graph

°F

The Settlement temperature yesterday

Maximum temperature yesterday: 82 °F (at 11:00 AM)
Minimum temperature yesterday: 70 °F (at 4:00 AM)
Average temperature yesterday: 76 °F

Past Weeks' High & Low Weather Summary

 TemperatureHumidityPressure
High84 °F (Jan 22, 11:00 AM)100% (Jan 18, 7:00 AM)30.01 "Hg (Jan 18, 7:00 AM)
Low70 °F (Jan 31, 4:00 AM)58% (Jan 30, 1:00 PM)29.80 "Hg (Jan 17, 4:00 PM)
Average77 °F86%29.91 "Hg
* Reported Jan 17 6:00 AM — Feb 1 6:00 AM, The Settlement, Weather by CustomWeather, © 2014

Note: Actual official high and low records may vary slightly from our data, if they occured in-between our weather recording intervals... More about our weather records

Advertising

The Settlement weather history for previous 24 hours

 ConditionsComfort  
Time TempWeatherWind HumidityBarometerVisibility
6:00 AM
Feb 1
70 °FSunny.3 mph100%29.89 "HgN/A
5:00 AM72 °FClear.3 mph94%29.89 "HgN/A
4:00 AM72 °FClear.3 mph94%29.89 "HgN/A
3:00 AM72 °FClear.3 mph94%29.89 "HgN/A
2:00 AM72 °FClear.3 mph94%29.89 "HgN/A
1:00 AM72 °FClear.2 mph94%29.89 "HgN/A
12:00 AM72 °FPassing clouds.3 mph94%29.92 "HgN/A
11:00 PM
Jan 31
72 °FClear.3 mph94%29.92 "HgN/A
10:00 PM73 °FClear.5 mph89%29.92 "HgN/A
9:00 PM73 °FClear.3 mph89%29.92 "HgN/A
8:00 PM75 °FClear.3 mph83%29.89 "HgN/A
7:00 PM75 °FClear.2 mph89%29.86 "HgN/A
6:00 PM79 °FScattered clouds.3 mph74%29.86 "HgN/A
5:00 PM81 °FScattered clouds.7 mph70%29.83 "HgN/A
4:00 PM82 °FScattered clouds.8 mph66%29.83 "HgN/A
3:00 PM82 °FScattered clouds.10 mph66%29.83 "HgN/A
2:00 PM82 °FScattered clouds.12 mph62%29.86 "HgN/A
1:00 PM82 °FSunny.10 mph66%29.86 "HgN/A
12:00 PM82 °FSunny.10 mph66%29.89 "HgN/A
11:00 AM82 °FSunny.9 mph66%29.92 "HgN/A
10:00 AM81 °FSunny.8 mph66%29.92 "HgN/A
9:00 AM81 °FSunny.6 mph66%29.92 "HgN/A
8:00 AM79 °FSunny.6 mph74%29.92 "HgN/A
7:00 AM73 °FSunny.3 mph94%29.89 "HgN/A
Weather by CustomWeather, © 2014

See weather overviewHow to use our weather pages